Zurück zum Katalog

SAPPHIRE

AktivWissenschaftLEO
NORAD 26932·PAYLOAD·🇺🇸 United States

Gestartet Sep 30, 2001 von Kodiak Launch Complex

Loading…

Nächste Überflüge (nächste 24 Stunden)

TLE

AktuellSource: Space-Track

Epoche: Sep 14, 2026, 07:28 UTC

1 26932U 01043D   26257.31117861  .00000019  00000-0  38387-4 0  9993
2 26932  67.0573  22.8419 0004266 260.4543  99.6077 14.31313658303144

Verfolge SAPPHIRE in Echtzeit mit AllMySat

Download on the App Store